This is the latest recevied weather packets stored in our database for station/object WK7G. If no packets are shown the sender has not sent any weather packets the latest 10 day(s).
| Time | Temp. | Humidity | Pressure | Rain* | Wind** | Luminosity | Snow |
|---|---|---|---|---|---|---|---|
| 1777914073 | 17.78° C | 35% | 1003.4 hPa | 0 mm | - | 706 W/m² | - |
| 1777913769 | 16.67° C | 38% | 1003.7 hPa | 0 mm | - | 1020 W/m² | - |
| 1777913465 | 16.67° C | 40% | 1003.3 hPa | 0 mm | - | 818 W/m² | - |
| 1777913161 | 16.67° C | 38% | 1003.6 hPa | 0 mm | - | 622 W/m² | - |
| 1777912858 | 16.11° C | 38% | 1003.4 hPa | 0 mm | - | 491 W/m² | - |
| 1777912554 | 15.56° C | 39% | 1003.6 hPa | 0 mm | - | 422 W/m² | - |
| 1777912251 | 16.67° C | 38% | 1003.4 hPa | 0 mm | - | 463 W/m² | - |
| 1777911947 | 16.11° C | 42% | 1003.7 hPa | 0 mm | - | 505 W/m² | - |
| 1777911643 | 16.67° C | 39% | 1003.7 hPa | 0 mm | - | 865 W/m² | - |
| 1777911339 | 15.56° C | 40% | 1003.6 hPa | 0 mm | - | 775 W/m² | - |
| 1777911038 | 15.56° C | 42% | 1003.8 hPa | 0 mm | - | 613 W/m² | - |
| 1777910735 | 15.56° C | 42% | 1003.8 hPa | 0 mm | - | 777 W/m² | - |
| 1777910431 | 15.56° C | 44% | 1003.7 hPa | 0 mm | - | 758 W/m² | - |
| 1777910127 | 15.56° C | 39% | 1003.3 hPa | 0 mm | - | 724 W/m² | - |
| 1777909826 | 15.56° C | 44% | 1003.7 hPa | 0 mm | - | 655 W/m² | - |
| 1777909522 | 15.56° C | 44% | 1003.6 hPa | 0 mm | - | 609 W/m² | - |
| 1777909219 | 15.56° C | 48% | 1003.6 hPa | 0 mm | - | 580 W/m² | - |
| 1777908917 | 15.56° C | 42% | 1003.6 hPa | 0 mm | - | 480 W/m² | - |
| 1777908615 | 15.56° C | 42% | 1003.8 hPa | 0 mm | - | 309 W/m² | - |
| 1777908311 | 15° C | 42% | 1003.7 hPa | 0 mm | - | 386 W/m² | - |
| 1777908008 | 15.56° C | 41% | 1003.8 hPa | 0 mm | - | 569 W/m² | - |
| 1777907703 | 15° C | 43% | 1003.7 hPa | 0 mm | - | 196 W/m² | - |
| 1777907398 | 15° C | 46% | 1003.9 hPa | 0 mm | - | 298 W/m² | - |
| 1777907095 | 14.44° C | 47% | 1004 hPa | 0 mm | - | 290 W/m² | - |
| 1777906793 | 13.89° C | 45% | 1004 hPa | 0 mm | - | 217 W/m² | - |
* Rain latest hour (hover to see other rain measurements)
** Current wind speed in m/s (hover to see current wind gust speed)